#timestamp,LO_Frequency,Hit,StdDev 
1630044015.7,286046998.2,N
1630044035.6,286046998.1,N
1630044055.4,286046999.8,N
1630044075.3,286047000.3,N
1630044095.1,286047001.0,N
1630044096.0,286047001.0,N
1630044115.8,286047000.0,N
1630044135.7,286046999.7,N
1630044155.5,286047000.0,N
1630044175.3,286047000.3,N
1630044195.2,286047000.6,N
1630044215.0,286047000.2,N
1630044215.9,286047000.2,N
1630044235.8,286047002.7,N
1630044255.6,286047002.8,N
1630044275.4,286047002.6,N
1630044295.3,286047002.0,N
1630044315.1,286047002.1,N
1630044335.8,286047001.8,N
1630044355.7,286047001.7,N
1630044375.5,286047001.8,N
1630044395.4,286047002.2,N
1630044415.2,286047002.8,N
1630044435.0,286047000.2,N
1630044435.9,286047000.2,N
1630044455.8,286047002.8,N
1630044505.7,286047001.1,E
1630044515.6,286046999.0,N
1630044535.4,286046998.0,P
1630044555.3,286046996.6,P
1630044575.1,286046997.0,Y
1630044576.0,286046997.0,P
1630044595.8,286047001.2,N
1630044615.7,286046999.3,N
1630044635.5,286046998.9,N
1630044655.3,286047000.5,N
1630044675.2,286047002.6,N
1630044695.0,286047001.7,N
1630044695.9,286047001.7,N
1630044715.8,286047002.0,N
1630044735.6,286047002.5,N
1630044755.4,286047002.5,N
1630044775.3,286047002.6,N
1630044795.1,286047002.2,N
1630044815.9,286047002.6,N
1630044835.7,286047002.5,N
1630044855.5,286047000.5,N
1630044875.4,286047000.0,N
1630044895.2,286047002.7,N
1630044915.0,286047001.6,N
1630044915.9,286047001.6,N
1630044935.8,286047002.1,N
1630044955.6,286047002.5,N
1630044975.5,286047000.3,N
1630044995.3,286047002.6,N
1630045015.1,286047002.3,N
1630045035.9,286047000.1,N
1630045055.7,286046998.1,N
1630045075.5,286046999.3,N
1630045095.4,286046998.8,N
1630045115.2,286046998.5,N
1630045135.0,286046998.8,N
1630045136.0,286046998.8,N
1630045155.8,286046998.9,N
1630045175.6,286046998.3,N
1630045195.5,286046998.2,N
1630045215.3,286046998.1,N
1630045235.1,286046998.1,N
1630045255.9,286047000.9,N
1630045275.7,286047002.1,N
1630045295.6,286047002.8,N
1630045315.4,286046999.8,N
1630045335.2,286047000.2,N
1630045355.1,286047002.5,N
1630045356.0,286047002.5,N
1630045375.8,286047002.8,N
1630045395.6,286047001.7,N
1630045415.5,286047001.5,N
1630045435.3,286047002.4,N
1630045455.2,286046998.3,N
1630045475.0,286046998.1,N
1630045475.9,286046998.1,N
1630045495.7,286047000.7,N
1630045515.6,286047000.9,N
1630045535.4,286046998.9,N
1630045555.3,286047000.8,N
1630045575.1,286047000.8,N
1630045595.8,286046998.9,N
1630045615.7,286047001.1,N
1630045635.5,286047000.5,N
1630045655.4,286047000.6,N
1630045675.2,286046999.8,N
1630045695.0,286046999.7,N
1630045695.9,286046999.7,N
1630045715.8,286047002.7,N
1630045735.6,286046998.1,N
1630045755.2,286046999.0,N
1630045775.0,286046998.3,N
1630045775.9,286046998.3,N
1630045795.8,286046998.2,N
1630045815.6,286047000.9,N
1630045835.4,286046998.5,N
1630045855.3,286046998.1,N
1630045875.1,286047001.0,N
1630045895.8,286047000.8,N
1630045915.7,286046998.7,N
1630045935.5,286046996.9,N
1630045955.4,286046998.6,N
1630045975.2,286047000.7,N
1630045995.0,286046999.9,N
1630045995.9,286046999.9,N
1630046015.8,286047002.4,N
1630046035.6,286047002.0,N
1630046055.4,286047000.9,N
1630046075.3,286047002.2,N
1630046095.1,286046999.7,N
1630046115.9,286046999.7,N
1630046135.7,286046999.7,N
1630046155.5,286047002.2,N
1630046175.4,286047000.5,N
1630046195.2,286047001.2,N
1630046215.0,286047000.8,N
1630046215.9,286047000.8,N
1630046235.8,286047000.2,N
1630046255.6,286047002.1,N
1630046275.5,286047004.3,N
1630046295.3,286047003.9,N
1630046315.1,286047002.5,N
1630046335.9,286047002.1,N
1630046355.7,286047003.9,N
1630046375.5,286047004.0,N
1630046395.4,286047001.4,N
1630046415.2,286047001.9,N
1630046435.1,286047001.3,N
1630046466.0,286047001.7,E
1630046475.0,286047001.9,N
1630046475.9,286047001.9,P
1630046495.8,286047000.4,P
1630046515.6,286047001.0,N
1630046535.4,286047002.0,Y
1630046555.3,286047002.7,P
1630046575.1,286047000.9,N
1630046595.8,286047000.2,N
1630046615.7,286047000.3,N
1630046635.5,286047002.7,N
1630046655.4,286047001.4,N
1630046675.2,286047004.3,Y
1630046695.0,286047002.0,P
1630046695.9,286047002.0,P
1630046715.8,286047001.8,P
1630046735.6,286047002.5,Y
1630046755.5,286046999.3,P
1630046775.3,286046997.0,N
1630046795.1,286046998.0,N
1630046815.9,286046995.2,N
1630046835.5,286046995.1,N
1630046855.4,286046995.0,N
1630046875.2,286046997.6,N
1630046895.0,286046997.4,N
1630046896.0,286046997.4,N
1630046915.8,286046996.8,N
1630046935.6,286046997.2,N
1630046955.5,286046997.1,N
1630046975.3,286046996.9,N
1630046995.1,286046999.5,N
1630047015.9,286046999.3,N
1630047035.7,286046998.2,N
1630047055.5,286047000.8,N
1630047075.4,286047000.8,N
1630047095.2,286047000.4,N
1630047115.1,286047000.2,N
1630047116.0,286047000.2,N
1630047135.8,286047000.9,N
1630047155.6,286047000.5,N
1630047175.5,286046998.8,N
1630047195.3,286046998.8,N
1630047215.1,286046997.2,N
1630047235.9,286046996.6,N
1630047255.7,286046999.5,N
1630047275.6,286046999.1,N
1630047295.4,286046996.6,N
1630047315.2,286046997.6,N
1630047335.1,286046997.5,N
1630047336.0,286046997.5,N
1630047355.8,286046995.3,N
1630047375.6,286046995.8,N
1630047395.5,286046995.2,N
1630047415.3,286046994.7,Y
1630047435.2,286046997.5,P
1630047455.9,286046997.4,P
1630047475.7,286046996.6,P
1630047495.6,286046996.8,Y
1630047515.4,286047000.2,P
1630047535.3,286047002.6,N
1630047555.1,286047000.5,N
1630047556.0,286047000.5,N
1630047575.8,286046998.8,N
1630047595.7,286046999.5,N
